Location: Góry Miechowskie
(50.3599°N, 20.1803°E)
Time: 16:02:30
(UTC+00:00)

deb Explorer IX - Pass Details

Date: 15 September 2024
Orbit: 504 x 830 km, 38.7° (Epoch: 04 October)

Event Time Altitude Azimuth Distance (km) Brightness Sun altitude
Rises 18:23:55 0° 219° (SW) 3,415 ? -15.0°
Reaches altitude 10° 18:27:12 10° 202° (SSW) 2,489 ? -15.4°
Maximum altitude 18:31:11 19° 160° (SSE) 1,940 ? -16.0°
Enters shadow 18:31:56 18° 151° (SSE) 1,959 ? -16.1°
